Probability
0 1 2 2 1 0 1 1 1 0 0 0 0 0 0 0 0 0 0 0 0 0 0 0 0 0 0 0 0 0 0 0 0 0 0 0 0 0 0 0 0 0 0
0 1 2 2 1 0 0 0 0 0 0 0 0 0 0 0 0 0 0 0 0 0 0 0 0 0 0 0 0 0 0 0 0 0 0 0 0 0 0 0 0 0 0
0 0 1 1 1 0 0 0 0 0 0 0 0 0 0 0 0 0 0 0 0 0 0 0 0 0 0 0 0 0 0 0 0 0 0 0 0 0 0 0 0 0 0
0 0 0 0 0 0 0 0 0 0 0 0 0 0 0 0 0 0 0 0 0 0 0 0 0 0 0 0 0 0 0 0 0 0 0 0 0 0 0 0 0 0 0
0 0 0 0 0 0 0 0 0 0 0 0 0 0 0 0 0 0 0 0 0 0 0 0 0 0 0 0 0 0 0 0 0 0 0 0 0 0 0 0 0 0 0
0 0 0 0 0 0 0 0 0 0 0 0 0 0 0 0 0 0 0 0 0 0 0 0 0 0 0 0 0 0 0 0 0 0 0 0 0 0 0 0 0 0 0
0 0 0 0 0 0 0 0 0 0 0 0 0 0 0 0 0 0 0 0 0 0 0 0 0 0 0 0 0 0 0 0 0 0 0 0 0 0 0 0 0 0 0
0 0 0 0 0 0 0 0 0 0 0 0 0 0 0 0 0 0 0 0 0 0 0 0 0 0 0 0 0 0 0 0 0 0 0 0 0 0 0 0 0 0 0
0 0 0 0 0 0 0 0 0 0 0 0 0 0 0 0 0 0 0 0 0 0 0 0 0 0 0 0 0 0 0 0 0 0 0 0 0 0 0 0 0 0 0
0 0 0 0 0 0 0 0 0 0 0 0 0 0 0 0 0 0 0 0 0 0 0 0 0 0 0 0 0 0 0 0 0 0 0 0 0 0 0 0 0 0 0
0 0 0 0 0 0 0 0 0 0 0 0 0 0 0 0 0 0 0 0 0 0 0 0 0 0 0 0 0 0 0 0 0 0 0 0 0 0 0 0 0 0 0
0 0 0 0 0 0 0 0 0 0 0 0 0 0 0 0 0 0 0 0 0 0 0 0 0 0 0 0 0 0 0 0 0 0 0 0 0 0 0 0 0 0 0
0 0 0 1 1 1 0 0 0 0 0 0 0 0 0 0 0 0 0 0 0 0 0 0 0 0 0 0 0 0 0 0 0 0 0 0 0 0 0 0 0 0 0
0 0 0 1 2 1 0 0 0 0 0 0 0 0 0 0 0 0 0 0 0 0 0 0 0 0 0 0 0 0 0 0 0 0 0 0 0 0 0 0 0 0 0
1 1 1 2 2 1 0 0 0 0 0 0 0 0 0 0 0 0 0 0 0 0 0 0 0 0 0 0 0 0 0 0 0 0 0 0 0 0 0 0 0 0 0
3 3 3 2 1 0 0 0 0 0 0 0 0 0 0 0 0 0 0 0 0 0 0 0 0 0 0 0 0 0 0 0 0 0 0 0 0 0 0 0 0 0 0
11 9 7 5 3 1 0 0 0 0 0 0 0 0 0 0 0 0 0 0 0 0 0 0 0 0 0 0 0 0 0 0 0 0 0 0 0 0 0 0 0 0 0
22 20 16 11 7 4 3 2 2 1 0 0 0 0 0 0 0 0 0 0 0 0 0 0 0 0 0 0 0 0 0 0 0 0 0 0 0 0 0 0 0 0 0
26 28 27 21 15 12 11 9 7 5 2 1 0 0 0 0 0 0 0 0 0 0 0 0 0 0 0 0 0 0 0 0 0 0 0 0 0 0 0 0 0 0 0
17 24 30 29 25 26 26 21 15 12 9 6 3 1 0 0 0 0 0 0 0 0 0 0 0 0 0 0 0 0 0 0 0 0 0 0 0 0 0 0 0 0 0
7 12 21 28 32 38 40 33 25 21 19 16 10 5 2 0 0 1 1 1 1 0 0 0 0 0 0 0 0 0 0 0 0 0 0 0 0 0 0 0 0 0 0
2 4 9 17 27 36 41 40 35 30 29 26 19 14 9 4 2 3 3 3 2 1 1 1 1 1 0 0 0 0 0 0 0 0 0 0 0 0 0 0 0 0 0
0 1 2 7 16 26 35 41 39 36 34 32 29 25 19 12 8 7 6 6 4 4 3 3 2 2 1 0 0 0 0 0 0 0 0 0 0 0 0 0 0 0 0
0 0 0 2 7 15 27 36 38 36 35 34 34 32 26 20 15 13 11 10 8 6 5 4 3 2 2 1 0 0 0 0 0 0 0 0 0 0 0 0 0 0 0
0 0 0 0 2 7 16 26 32 32 31 31 31 31 29 26 22 18 16 16 13 9 6 4 2 1 1 1 0 0 0 0 0 0 0 0 0 0 0 0 0 0 0
0 0 0 0 0 2 7 16 25 28 27 26 26 29 32 29 24 20 18 18 16 12 8 5 2 1 0 1 0 0 0 0 0 0 0 0 0 0 0 0 0 0 0
Wind_Speed
11 15 17 16 16 16 16 15 15 14 14 14 13 13 12 11 10 9 8 8 8 8 9 10 11 11 12 12 12 12 12 12 11 11 10 10 10 10 10 8 5 8 9
15 17 17 15 15 16 16 15 14 14 13 13 13 12 11 10 9 8 7 7 7 8 9 11 11 12 12 12 11 11 11 11 10 9 6 6 7 8 8 7 7 7 7
16 17 18 14 14 15 15 15 15 14 14 13 12 12 10 9 8 7 7 7 7 9 10 12 12 12 12 12 11 10 10 10 9 6 1 5 8 6 6 6 6 6 6
16 16 16 15 14 15 16 16 15 14 13 13 12 11 10 9 7 7 7 7 8 10 11 12 13 12 11 11 10 10 10 9 7 1 4 6 6 7 5 5 5 5 6
14 14 15 14 14 15 15 16 15 14 13 12 11 10 9 8 8 7 8 9 10 11 11 12 12 11 11 10 9 9 9 8 4 2 7 6 6 7 7 8 8 7 7
14 14 16 13 14 14 15 15 15 14 13 12 11 10 9 8 8 9 9 10 11 11 11 12 12 11 10 9 9 8 8 6 4 6 6 6 7 8 9 10 12 12 12
13 13 16 13 14 14 15 14 14 13 13 12 11 10 9 9 9 10 10 11 11 11 11 11 11 10 9 8 8 8 7 2 3 6 6 7 9 10 12 13 13 14 14
13 12 14 13 12 13 14 13 13 13 12 12 11 10 10 9 10 10 10 10 11 11 11 10 10 9 8 8 8 8 6 2 4 6 6 8 10 11 13 13 13 13 14
12 12 12 13 13 12 12 12 12 12 11 11 11 10 9 9 10 10 9 9 10 10 10 9 9 8 8 8 8 8 6 1 3 4 5 6 9 11 12 12 12 12 12
11 11 12 12 12 12 12 11 10 11 10 10 9 9 9 8 9 8 8 8 8 9 9 9 8 8 8 8 8 8 6 4 4 4 4 7 9 10 11 11 11 11 11
10 11 11 11 11 10 10 11 11 10 10 11 10 10 9 9 9 8 7 7 7 8 9 9 8 9 8 8 7 7 5 3 4 3 4 8 8 9 10 9 9 10 10
12 11 10 11 11 10 7 9 9 9 10 10 9 11 9 7 6 6 8 6 6 7 8 8 8 8 6 6 7 6 4 4 3 3 5 8 9 9 9 9 9 9 9
11 11 10 10 10 10 7 7 6 6 7 9 10 10 8 7 6 6 6 7 7 7 7 7 7 5 5 3 4 4 3 3 2 3 6 8 8 8 8 8 8 8 8
10 11 10 10 9 10 8 7 7 6 6 6 9 10 8 6 6 6 5 6 6 5 5 5 4 5 5 5 5 5 5 3 3 3 6 7 8 8 8 7 7 6 6
10 11 11 11 10 10 9 7 7 7 7 8 8 9 10 7 7 7 6 6 6 5 6 5 5 6 5 5 5 5 5 5 4 4 5 7 7 8 7 7 6 6 5
11 11 11 12 11 11 9 8 8 7 7 8 8 10 11 8 8 7 7 7 7 6 6 6 6 6 5 5 5 6 6 5 5 5 5 7 7 7 7 7 6 5 5
11 12 12 12 12 13 12 11 8 7 8 8 8 11 12 11 10 9 8 8 7 7 7 6 7 5 5 5 6 6 5 5 5 6 5 5 6 6 7 7 6 5 4
11 11 12 11 13 14 12 11 8 8 9 8 9 10 13 13 12 10 9 8 8 7 7 7 6 6 6 6 5 5 5 4 7 6 6 6 5 6 7 7 6 5 4
12 12 12 13 13 13 13 10 10 9 9 9 9 10 12 14 14 12 9 9 10 8 8 7 7 7 7 6 5 5 5 5 6 6 7 7 6 6 6 7 7 5 3
10 11 12 13 13 12 10 9 8 9 9 9 10 11 13 13 15 13 10 12 11 9 9 9 9 7 6 6 5 5 5 5 5 6 7 7 6 8 7 7 6 5 4
8 10 11 11 12 10 8 9 9 10 10 10 10 13 14 14 15 14 11 12 12 11 12 12 10 10 7 6 5 5 5 6 7 6 7 7 8 8 8 8 6 5 4
7 8 9 10 10 11 10 9 8 9 8 10 9 12 15 15 16 13 15 13 13 12 14 14 12 9 7 8 7 5 5 6 7 7 7 7 8 8 8 8 7 6 4
4 5 5 7 8 9 10 8 7 7 6 8 11 11 15 16 16 16 16 15 13 13 13 15 15 14 10 9 9 7 6 8 5 6 8 7 8 7 7 7 8 6 5
2 3 3 5 6 7 8 9 11 10 11 13 11 10 12 15 16 16 16 16 14 13 14 14 15 13 12 9 8 7 5 2 4 5 5 6 7 8 8 6 7 6 6
2 2 2 3 4 5 6 8 10 11 11 10 10 12 12 12 14 15 15 14 14 12 14 14 14 14 12 11 8 6 6 3 4 4 4 5 5 5 5 6 5 5 5
3 3 2 2 3 4 5 7 9 11 12 12 13 12 11 9 10 14 14 13 13 12 13 13 13 14 12 11 8 7 6 5 6 5 4 3 4 3 4 3 4 4 4
Wind_Direction
154 152 151 155 155 152 148 144 142 139 137 136 135 134 133 131 129 128 129 130 131 129 124 116 109 106 103 98 93 89 87 85 82 75 66 61 64 74 71 61 56 81 72
149 151 148 154 155 153 150 146 141 138 137 137 136 135 134 133 133 134 137 135 135 134 127 118 111 108 105 101 97 93 90 88 85 78 74 89 72 70 70 58 39 60 63
150 149 151 152 153 152 149 145 141 140 140 139 138 137 135 134 136 136 139 135 132 129 125 119 113 109 106 103 100 97 93 89 85 85 153 100 91 78 72 67 64 63 60
151 151 156 148 153 152 149 146 145 144 143 141 139 137 134 132 135 138 136 134 127 124 121 117 113 111 108 105 102 98 96 91 87 154 97 76 83 80 71 65 62 60 56
152 152 144 148 152 151 149 148 147 146 144 143 140 137 134 131 130 128 129 127 122 118 117 117 117 115 110 107 104 100 98 96 105 108 81 77 78 72 71 66 62 61 62
155 152 145 151 150 150 149 149 149 148 147 144 141 138 136 133 129 123 119 117 117 117 119 120 119 116 112 109 106 103 104 116 171 89 82 74 74 74 77 72 69 66 67
156 152 150 150 150 150 151 151 150 150 150 146 144 144 142 136 127 120 118 118 121 121 122 122 121 118 115 112 109 107 109 124 94 90 80 73 69 73 77 74 70 69 68
156 153 152 148 149 152 154 154 154 154 152 149 148 149 147 141 133 126 125 126 127 127 127 126 125 122 119 118 114 113 117 175 109 93 82 79 73 76 77 75 72 70 68
160 158 159 163 159 156 156 157 157 154 153 153 154 151 143 137 138 137 135 136 132 129 129 128 128 126 125 123 120 118 115 79 122 96 89 81 79 81 79 77 76 73 70
168 168 168 170 171 171 168 160 156 152 153 153 149 139 130 132 143 144 150 141 137 134 130 129 130 128 124 124 125 124 132 200 132 122 102 92 89 87 83 80 78 75 72
180 178 177 176 175 176 175 162 163 157 156 156 151 140 154 168 163 163 152 135 140 137 134 135 133 126 124 122 124 136 181 187 132 112 101 98 100 95 90 85 82 80 76
187 187 184 185 179 179 172 172 180 177 173 184 174 171 182 176 168 162 134 136 133 132 138 138 135 145 175 152 142 180 188 171 148 136 109 110 111 104 99 95 91 86 81
192 191 194 192 188 185 179 183 180 183 183 191 186 182 182 175 168 174 167 163 163 164 165 151 169 180 186 167 170 181 174 165 157 137 119 121 120 116 111 105 98 91 86
197 196 197 199 197 197 191 188 190 189 188 189 190 189 185 181 184 183 186 182 182 184 179 186 192 179 185 180 185 177 172 177 170 144 118 126 130 126 122 115 108 100 91
204 202 201 202 205 204 201 199 202 199 196 194 193 195 194 190 191 187 192 189 194 190 187 194 196 185 189 185 187 183 182 180 171 163 133 127 132 136 135 129 121 112 99
209 206 203 203 206 209 208 206 207 206 203 204 198 200 200 200 197 192 195 195 197 197 196 197 197 191 193 193 188 187 188 180 183 180 158 139 133 144 149 144 134 122 107
215 211 207 206 206 210 214 214 213 210 208 208 206 205 204 206 202 200 201 198 199 198 197 200 195 199 194 190 194 195 193 192 186 185 183 171 155 146 156 154 144 134 119
221 217 212 207 210 211 214 214 214 214 213 214 211 209 209 210 207 206 206 205 200 196 197 197 197 197 193 197 195 190 194 193 201 193 189 187 179 169 161 158 154 146 132
224 220 216 212 214 213 213 215 217 217 217 218 216 215 212 213 211 210 211 208 200 199 201 199 203 203 200 200 196 194 198 197 199 201 202 194 189 189 176 152 149 144 144
231 227 221 215 216 215 211 213 216 221 222 221 221 220 217 214 213 214 214 212 204 202 202 201 200 203 206 193 186 195 206 205 208 205 206 198 193 194 195 180 174 156 152
226 227 226 223 218 212 208 209 212 218 220 221 223 224 222 219 215 215 215 213 208 208 207 203 198 198 199 183 180 195 207 217 218 209 210 204 198 198 200 198 199 192 174
225 226 229 227 225 218 216 215 219 222 224 224 223 226 224 221 218 216 216 215 211 212 211 206 198 198 191 189 194 194 209 207 216 214 210 213 206 195 203 204 202 202 204
234 237 236 235 233 227 226 223 220 222 227 224 224 224 224 223 220 217 219 218 214 212 213 208 202 201 197 197 206 204 209 219 180 190 211 211 208 202 204 201 204 202 205
261 266 258 252 244 237 230 226 222 221 225 228 229 229 228 225 224 221 220 220 217 214 216 212 207 208 204 197 204 227 247 274 191 179 192 210 213 214 209 199 203 202 205
335 310 290 275 262 255 242 233 233 235 238 241 238 237 234 228 226 224 222 220 220 217 218 214 208 210 209 205 193 191 207 228 243 215 189 181 201 214 214 209 204 203 200
26 12 345 305 281 273 259 246 238 240 244 246 244 242 239 234 229 225 223 221 221 218 218 216 210 210 211 210 198 190 183 186 201 207 203 175 185 177 201 215 213 208 201